Back to catalog

NOAA 16 DEB

AlivePO
NORAD 41418·DEBRIS·🇺🇸 United States

Launched Sep 21, 2000 from Vandenberg Space Force Base

Loading…

Next Passes (next 24 hours)

TLE

FreshSource: Space-Track

Epoch: Sep 14, 2026, 10:57 UTC

1 41418U 00055KX  26257.45635709  .00003795  00000-0  94067-3 0  9992
2 41418  99.0005 142.1680 0024350 200.1962 159.8271 14.52381382550234

Track NOAA 16 DEB in real time with AllMySat

Download on the App Store